Simultaneous Nadir Overpasses (SNOs) Predictions

Prediction of SNOs between GOES-16 and METOP-C Satellite Orbit:

Table of predicted SNOs for the next 14.0 days since TLE Epoch: 5/20/2023
Index Date Time (GOES-16) GOES-16 Lat,Lon METOP-C Lat,Lon Distance(km) Time Diff (sec)
1 05/20/2023 02:36:18 -0.01, -75.19 0.00, -76.17 109.01 80
2 05/21/2023 02:12:54 -0.01, -75.20 0.92, -71.13 463.36 80
3 05/22/2023 14:34:24 0.00, -75.21 0.13, -75.68 54.85 80
4 05/25/2023 02:32:43 0.00, -75.22 -0.03, -75.29 8.39 80
5 05/27/2023 14:28:13 -0.01, -75.25 -0.11, -74.85 45.56 80
6 05/29/2023 02:49:53 0.00, -75.27 -0.95, -79.44 476.17 80
7 05/30/2023 02:26:33 0.01, -75.28 0.21, -74.46 94.86 80
8 05/31/2023 14:48:02 -0.00, -75.31 0.80, -79.01 420.74 80
9 06/01/2023 14:24:42 -0.01, -75.33 -0.31, -74.01 150.49 80
